Flag for France Weather past 2 weeks in Paris, France

Now
55 °F

Clear.


Feels Like: 50 °F
Forecast: 44 / 51 °F
Wind: 28 mph from West

Location: Villacoublay

Current Time: Mar 31, 2015 at 6:12:22 PM

Latest Report: Mar 31, 2015 at 5:30 PM


Visibility: N/A

Pressure: 30.04 "Hg

Humidity: 41%

Dew point: 32 °F

Location of ParisLocation

Historic Weather in Paris — Graph

°F

Paris temperature yesterday

Maximum temperature yesterday: 54 °F (at 3:00 PM)
Minimum temperature yesterday: 46 °F (at 8:30 AM)
Average temperature yesterday: 51 °F

Past Weeks' High & Low Weather Summary

 TemperatureHumidityPressure
High63 °F (Mar 17, 3:00 PM)100% (Mar 26, 2:30 PM)30.36 "Hg (Mar 26, 2:30 PM)
Low30 °F (Mar 26, 3:00 AM)32% (Mar 17, 4:30 PM)29.68 "Hg (Mar 30, 2:00 AM)
Average47 °F76%30.04 "Hg
* Reported Mar 16 4:00 PM — Mar 31 5:00 PM, Paris, Weather by CustomWeather, © 2015

Note: Actual official high and low records may vary slightly from our data, if they occured in-between our weather recording intervals... More about our weather records

Advertising

Paris weather history for previous 24 hours

 ConditionsComfort  
Time TempWeatherWind HumidityBarometerVisibility
5:00 PM
Tue, Mar 31
55 °FClear.26 mph47%30.04 "HgN/A
4:30 PM54 °FScattered clouds.22 mph51%30.04 "HgN/A
4:00 PM54 °FBroken clouds.24 mph51%30.01 "HgN/A
3:30 PM55 °FBroken clouds.25 mph51%30.01 "HgN/A
3:00 PM54 °FMostly cloudy.22 mph58%30.01 "HgN/A
2:30 PM54 °FMore clouds than sun.25 mph54%30.01 "HgN/A
2:00 PM54 °FMore clouds than sun.23 mph54%29.98 "HgN/A
1:30 PM52 °FMostly cloudy.23 mph62%29.98 "HgN/A
1:00 PM52 °FMostly cloudy.25 mph62%29.98 "HgN/A
12:30 PM50 °FPartly sunny.28 mph67%29.95 "HgN/A
12:00 PM52 °FMostly cloudy.21 mph72%29.92 "HgN/A
11:30 AM50 °FLight rain. More clouds than sun.21 mph82%29.92 "HgN/A
11:00 AM52 °FMostly cloudy.21 mph72%29.89 "HgN/A
10:30 AM52 °FMostly cloudy.22 mph72%29.86 "HgN/A
10:00 AM52 °FMostly cloudy.18 mph77%29.83 "HgN/A
9:30 AM52 °FPartly sunny.20 mph77%29.83 "HgN/A
9:00 AM52 °FPartly sunny.21 mph82%29.83 "HgN/A
8:30 AM50 °FLight rain. Partly cloudy.22 mph88%29.83 "Hg5 mi
8:00 AM50 °FLight rain. Partly cloudy.31 mph88%29.80 "HgN/A
7:30 AM50 °FLight rain. Passing clouds.20 mph94%29.80 "HgN/A
7:00 AM50 °FLight rain. Mostly cloudy.20 mph94%29.77 "Hg4 mi
6:30 AM52 °FOvercast.23 mph82%29.74 "HgN/A
6:00 AM54 °FOvercast.21 mph77%29.74 "HgN/A
5:30 AM54 °FMostly cloudy.24 mph77%29.77 "HgN/A
4:30 AM54 °FMostly cloudy.22 mph77%29.77 "HgN/A
4:00 AM54 °FPartly cloudy.21 mph82%29.77 "HgN/A
3:30 AM55 °FPartly cloudy.22 mph77%29.80 "HgN/A
3:00 AM55 °FMostly cloudy.23 mph82%29.83 "HgN/A
2:30 AM55 °FOvercast.20 mph88%29.83 "HgN/A
2:00 AM54 °FOvercast.18 mph94%29.83 "HgN/A
1:30 AM54 °FOvercast.20 mph88%29.83 "HgN/A
1:00 AM54 °FOvercast.20 mph88%29.83 "HgN/A
12:30 AM54 °FOvercast.20 mph88%29.83 "HgN/A
12:00 AM54 °FMostly cloudy.17 mph88%29.86 "HgN/A
11:30 PM
Mon, Mar 30
54 °FMostly cloudy.16 mph88%29.86 "HgN/A
11:00 PM54 °FMostly cloudy.14 mph82%29.89 "HgN/A
10:30 PM52 °FMostly cloudy.10 mph82%29.92 "HgN/A
10:00 PM52 °FPassing clouds.12 mph77%29.92 "HgN/A
9:30 PM52 °FMostly cloudy.10 mph77%29.95 "HgN/A
9:00 PM52 °FMostly cloudy.9 mph72%29.95 "HgN/A
8:30 PM52 °FPartly sunny.9 mph72%29.95 "HgN/A
8:00 PM52 °FMostly cloudy.10 mph77%29.98 "HgN/A
7:30 PM52 °FMore clouds than sun.8 mph72%29.98 "HgN/A
7:00 PM52 °FPartly sunny.12 mph72%29.98 "HgN/A
6:30 PM52 °FLight rain. Mostly cloudy.10 mph72%29.98 "HgN/A
6:00 PM54 °FLight rain. Mostly cloudy.10 mph63%29.98 "HgN/A
Weather by CustomWeather, © 2015

See weather overviewHow to use our weather pages